Regional Weather Roundup
Issued by NWS

Home | Current Version | Previous Version | Graphics & Text | Print | Product List | Glossary On
Versions: 1 2 3 4 5 6 7 8 9 10 11 12 13 14 15 16 17 18 19 20 21 22 23 24 25 26 27 28 29 30 31 32 33 34 35 36 37 38 39 40 41 42 43 44 45 46 47 48 49 50
462
ASUS45 KBOI 220410
RWRID

IDAHO REGIONAL WEATHER ROUNDUP
NATIONAL WEATHER SERVICE BOISE ID
900 PM MST TUE FEB 21 2017

NOTE: "FAIR" INDICATES FEW OR NO CLOUDS BELOW 12000 FEET
WITH NO SIGNIFICANT WEATHER AND/OR OBSTRUCTIONS TO VISIBILITY

IDZ012-014-220500-
SOUTHWEST IDAHO


CITY           SKY/WX    TMP DP  RH WIND       PRES   REMARKS
BOISE          MOCLDY    43  29  57 W13       30.01S
CALDWELL       MOCLDY    43  30  60 SW12      30.01S
MOUNTAIN HOME  PTCLDY    41  32  71 N15       30.02R
$$

IDZ016-017-220500-
SOUTHCENTRAL IDAHO


CITY           SKY/WX    TMP DP  RH WIND       PRES   REMARKS
BURLEY         CLOUDY    40  27  59 W10       30.00S WCI  33
JEROME           N/A    N/A N/A N/A MISG      30.01R
TWIN FALLS     CLOUDY    36  28  73 S12       30.02S WCI  28
$$

IDZ019>023-220500-
SOUTHEAST IDAHO


CITY           SKY/WX    TMP DP  RH WIND       PRES   REMARKS
IDAHO FALLS    CLOUDY    35  30  82 SW20      29.95R WCI  24
POCATELLO      PTCLDY    36  29  75 SW14      29.98S WCI  27
REXBURG        CLOUDY    35  29  78 SW13G23   29.90S WCI  26
$$

IDZ006-010-011-018-031-032-220500-
CENTRAL IDAHO MOUNTAINS


CITY           SKY/WX    TMP DP  RH WIND       PRES   REMARKS
MCCALL         LGT SNOW  31  26  82 S6        29.91R WCI  25
HAILEY         PTCLDY    30  28  93 CALM      29.96R
STANLEY          N/A     27  18  69 CALM      29.92R
SALMON         CLOUDY    39  25  56 S17       29.85R WCI  30
CHALLIS        CLOUDY    35  22  58 S7        29.89R WCI  29
$$

IDZ002-004-006-007-026-220500-
NORTHERN IDAHO


CITY           SKY/WX    TMP DP  RH WIND       PRES   REMARKS
LEWISTON       LGT RAIN  38  35  89 E6        29.97R WCI  33
LOWELL           N/A     35  34  96 CALM      29.99R
COEUR D`ALENE  CLOUDY    33  32  96 SW10      29.92R FOG     WCI  25
MULLAN PASS    SNOW      24  24 100 VRB3      29.77R VSB 1/2
$$




USA.gov is the U.S. government's official web portal to all federal, state and local government web resources and services.